YO8RBY-13 Weather Reports


Display with metric or nautical units.
time (UTC)temp
F
wind
direction
speed
MPH
gust
MPH
rain 1hr
in
rain 24hr
in
rain mn
in
humidity
%
barometer
mb
20260507160354 67 0.0 0.0 0.00 0.00 0.00 95 970.8
20260507155425 68 0.0 0.0 0.00 0.00 0.00 94 970.9
20260507154355 67 0.0 0.0 0.00 0.00 0.00 95 970.9
20260507153357 68 0.0 0.0 0.00 0.00 0.00 94 970.9
20260507152354 69 0.0 0.0 0.00 0.00 0.00 90 970.8
20260507151354 69 0.0 0.0 0.00 0.00 0.00 85 970.9
20260507150354 70 0.0 0.0 0.00 0.00 0.00 83 970.9
20260507145355 70 0.0 0.0 0.00 0.00 0.00 87 971.1
20260507144354 68 0.0 0.0 0.00 0.00 0.00 90 971.0
20260507143410 69 0.0 0.0 0.00 0.00 0.00 89 971.1
20260507142411 71 0.0 0.0 0.00 0.00 0.00 81 971.2
20260507141355 71 0.0 0.0 0.00 0.00 0.00 76 971.2
20260507140354 72 0.0 0.0 0.00 0.00 0.00 68 971.2
20260507135354 71 0.0 0.0 0.00 0.00 0.00 81 971.2
20260507134354 72 0.0 0.0 0.00 0.00 0.00 76 971.4
20260507133354 72 0.0 0.0 0.00 0.00 0.00 71 971.4
20260507132354 72 0.0 0.0 0.00 0.00 0.00 66 971.5
20260507131354 72 0.0 0.0 0.00 0.00 0.00 72 971.5
20260507130354 73 0.0 0.0 0.00 0.00 0.00 74 971.5
20260507125354 73 0.0 0.0 0.00 0.00 0.00 64 971.6
20260507124354 74 0.0 0.0 0.00 0.00 0.00 61 971.7
20260507123354 74 0.0 0.0 0.00 0.00 0.00 58 971.8
20260507122354 74 0.0 0.0 0.00 0.00 0.00 64 971.9
20260507121354 74 0.0 0.0 0.00 0.00 0.00 62 971.9
20260507120427 75 0.0 0.0 0.00 0.00 0.00 65 972.1
20260507115354 75 0.0 0.0 0.00 0.00 0.00 59 972.1
20260507114355 75 0.0 0.0 0.00 0.00 0.00 69 972.1
20260507113354 75 0.0 0.0 0.00 0.00 0.00 69 972.2
20260507112354 75 0.0 0.0 0.00 0.00 0.00 68 972.1
20260507111355 74 0.0 0.0 0.00 0.00 0.00 60 972.2
20260507110354 75 0.0 0.0 0.00 0.00 0.00 63 972.2
20260507105354 74 0.0 0.0 0.00 0.00 0.00 69 972.3
20260507104410 74 0.0 0.0 0.00 0.00 0.00 80 972.2
20260507103354 74 0.0 0.0 0.00 0.00 0.00 81 972.3
20260507102357 74 0.0 0.0 0.00 0.00 0.00 80 972.5
20260507101354 73 0.0 0.0 0.00 0.00 0.00 78 972.5
20260507100409 74 0.0 0.0 0.00 0.00 0.00 80 972.6
20260507095354 73 0.0 0.0 0.00 0.00 0.00 85 972.7
20260507094355 71 0.0 0.0 0.00 0.00 0.00 85 972.8
20260507093354 71 0.0 0.0 0.00 0.00 0.00 89 972.8
20260507092354 71 0.0 0.0 0.00 0.00 0.00 90 972.8
20260507091409 71 0.0 0.0 0.00 0.00 0.00 94 972.8
20260507090354 70 0.0 0.0 0.00 0.00 0.00 96 972.9
20260507085354 70 0.0 0.0 0.00 0.00 0.00 96 972.8
20260507084354 68 0.0 0.0 0.00 0.00 0.00 10 972.9
20260507083356 67 0.0 0.0 0.00 0.00 0.00 10 972.9
20260507082354 67 0.0 0.0 0.00 0.00 0.00 10 973.0
20260507081409 69 0.0 0.0 0.00 0.00 0.00 10 973.0
20260507080424 68 0.0 0.0 0.00 0.00 0.00 10 973.1
20260507075354 68 0.0 0.0 0.00 0.00 0.00 10 973.1
20260507074409 68 0.0 0.0 0.00 0.00 0.00 10 973.1
20260507073355 65 0.0 0.0 0.00 0.00 0.00 10 973.1
20260507072355 65 0.0 0.0 0.00 0.00 0.00 10 973.1
20260507071354 65 0.0 0.0 0.00 0.00 0.00 10 973.0
20260507070355 65 0.0 0.0 0.00 0.00 0.00 10 973.0
20260507065355 66 0.0 0.0 0.00 0.00 0.00 10 972.9
20260507064354 66 0.0 0.0 0.00 0.00 0.00 10 973.0
20260507063355 64 0.0 0.0 0.00 0.00 0.00 10 973.0
20260507062354 64 0.0 0.0 0.00 0.00 0.00 10 972.9
20260507061409 67 0.0 0.0 0.00 0.00 0.00 10 972.9
20260507060415 67 0.0 0.0 0.00 0.00 0.00 98 972.8
20260507055354 67 0.0 0.0 0.00 0.00 0.00 10 972.8
20260507054358 65 0.0 0.0 0.00 0.00 0.00 10 972.9
20260507053355 63 0.0 0.0 0.00 0.00 0.00 10 972.8
20260507052357 61 0.0 0.0 0.00 0.00 0.00 10 972.8
20260507051356 59 0.0 0.0 0.00 0.00 0.00 10 972.8
20260507050354 59 0.0 0.0 0.00 0.00 0.00 10 972.8
20260507045356 56 0.0 0.0 0.00 0.00 0.00 10 972.6
20260507044354 54 0.0 0.0 0.00 0.00 0.00 10 972.3
20260507043354 52 0.0 0.0 0.00 0.00 0.00 10 971.6
20260507042355 49 0.0 0.0 0.00 0.00 0.00 10 969.5
20260507041354 47 0.0 0.0 0.00 0.00 0.00 10 969.1
20260507040354 46 0.0 0.0 0.00 0.00 0.00 10 968.9
20260507035409 45 0.0 0.0 0.00 0.00 0.00 10 968.7
20260507034409 45 0.0 0.0 0.00 0.00 0.00 10 968.5
20260507033354 44 0.0 0.0 0.00 0.00 0.00 10 968.5
20260507032354 44 0.0 0.0 0.00 0.00 0.00 10 968.4
20260507031410 44 0.0 0.0 0.00 0.00 0.00 10 968.3
20260507030353 43 0.0 0.0 0.00 0.00 0.00 10 968.3
20260507025355 43 0.0 0.0 0.00 0.00 0.00 10 968.4
20260507024353 43 0.0 0.0 0.00 0.00 0.00 10 968.5
20260507023354 44 0.0 0.0 0.00 0.00 0.00 10 968.5
20260507022355 44 0.0 0.0 0.00 0.00 0.00 10 968.7
20260507021355 44 0.0 0.0 0.00 0.00 0.00 10 968.9
20260507020354 45 0.0 0.0 0.00 0.00 0.00 10 968.9
20260507015353 45 0.0 0.0 0.00 0.00 0.00 10 969.0
20260507014355 45 0.0 0.0 0.00 0.00 0.00 10 969.1
20260507013355 46 0.0 0.0 0.00 0.00 0.00 10 969.3
20260507012354 47 0.0 0.0 0.00 0.00 0.00 10 969.6
20260507011355 47 0.0 0.0 0.00 0.00 0.00 10 969.5
20260507010356 46 0.0 0.0 0.00 0.00 0.00 10 969.3
20260507005354 46 0.0 0.0 0.00 0.00 0.00 10 969.4
20260507004353 47 0.0 0.0 0.00 0.00 0.00 10 969.5
20260507003354 47 0.0 0.0 0.00 0.00 0.00 10 969.4
20260507002424 47 0.0 0.0 0.00 0.00 0.00 10 969.9
20260507001354 48 0.0 0.0 0.00 0.00 0.00 10 969.9
20260507000353 47 0.0 0.0 0.00 0.00 0.00 10 969.5
20260506235353 47 0.0 0.0 0.00 0.00 0.00 10 969.6
20260506234355 47 0.0 0.0 0.00 0.00 0.00 10 969.3
20260506233354 47 0.0 0.0 0.00 0.00 0.00 10 969.3
20260506232356 47 0.0 0.0 0.00 0.00 0.00 10 969.4
20260506231354 47 0.0 0.0 0.00 0.00 0.00 10 969.6
20260506230354 47 0.0 0.0 0.00 0.00 0.00 10 970.0
20260506225353 49 0.0 0.0 0.00 0.00 0.00 10 970.2
20260506224355 48 0.0 0.0 0.00 0.00 0.00 10 969.9
20260506223414 48 0.0 0.0 0.00 0.00 0.00 10 970.2
20260506222355 49 0.0 0.0 0.00 0.00 0.00 10 970.3
20260506221353 50 0.0 0.0 0.00 0.00 0.00 10 970.3
20260506220354 49 0.0 0.0 0.00 0.00 0.00 10 970.3
20260506215354 50 0.0 0.0 0.00 0.00 0.00 10 970.5
20260506214353 50 0.0 0.0 0.00 0.00 0.00 10 970.7
20260506213354 51 0.0 0.0 0.00 0.00 0.00 10 970.7
20260506212354 51 0.0 0.0 0.00 0.00 0.00 10 970.7
20260506211353 52 0.0 0.0 0.00 0.00 0.00 10 971.1
20260506210354 53 0.0 0.0 0.00 0.00 0.00 10 971.4
20260506205409 53 0.0 0.0 0.00 0.00 0.00 10 971.3
20260506204353 52 0.0 0.0 0.00 0.00 0.00 10 971.2
20260506203353 53 0.0 0.0 0.00 0.00 0.00 10 971.2
20260506202354 54 0.0 0.0 0.00 0.00 0.00 10 971.4
20260506201353 55 0.0 0.0 0.00 0.00 0.00 10 971.5
20260506200357 55 0.0 0.0 0.00 0.00 0.00 10 971.5
20260506195353 56 0.0 0.0 0.00 0.00 0.00 10 971.5
20260506194441 56 0.0 0.0 0.00 0.00 0.00 10 971.5
20260506193356 56 0.0 0.0 0.00 0.00 0.00 10 971.6
20260506192353 56 0.0 0.0 0.00 0.00 0.00 10 971.5
20260506191355 56 0.0 0.0 0.00 0.00 0.00 10 971.4
20260506190353 56 0.0 0.0 0.00 0.00 0.00 10 971.3
20260506185356 56 0.0 0.0 0.00 0.00 0.00 10 971.3
20260506184354 57 0.0 0.0 0.00 0.00 0.00 10 971.3
20260506183410 58 0.0 0.0 0.00 0.00 0.00 10 971.2
20260506182439 58 0.0 0.0 0.00 0.00 0.00 10 971.1
20260506181353 59 0.0 0.0 0.00 0.00 0.00 10 971.0
20260506180425 61 0.0 0.0 0.00 0.00 0.00 10 970.8
20260506175353 62 0.0 0.0 0.00 0.00 0.00 10 970.7
20260506174354 63 0.0 0.0 0.00 0.00 0.00 99 970.6
20260506173355 64 0.0 0.0 0.00 0.00 0.00 95 970.6
20260506172353 65 0.0 0.0 0.00 0.00 0.00 92 970.4
20260506171353 66 0.0 0.0 0.00 0.00 0.00 83 970.3
20260506170353 67 0.0 0.0 0.00 0.00 0.00 76 970.3
20260506165353 67 0.0 0.0 0.00 0.00 0.00 74 970.2
20260506164353 68 0.0 0.0 0.00 0.00 0.00 60 970.2
20260506163353 70 0.0 0.0 0.00 0.00 0.00 49 970.1
20260506162410 71 0.0 0.0 0.00 0.00 0.00 47 970.1
20260506161354 71 0.0 0.0 0.00 0.00 0.00 44 970.0